Location: Unspecified
(46.6890°N, 0.0000°E)
Time: 03:13:51
(UTC+00:00)

RS-15 - Visible Passes

Search period start: 05 April 2026 00:00
Search period end: 15 April 2026 00:00
Orbit: 1893 x 2151 km, 64.8° (Epoch: 29 March)

Date Brightness Start Highest point End Pass type
(mag) Time Alt. Az. Time Alt. Az. Time Alt. Az.
5 Apr 7.9 01:25:28 10° NW 01:37:00 77° WSW 01:41:12 48° SSE visible
5 Apr 8.9 03:39:40 10° NW 03:47:32 22° W 03:48:49 21° WSW visible
5 Apr 9.4 20:20:54 10° WNW 20:30:32 32° N 20:40:32 10° NE visible
5 Apr 8.9 22:36:24 10° NW 22:46:56 40° NNE 22:57:34 11° E visible
6 Apr 7.9 00:49:20 10° NW 01:00:58 89° NE 01:05:13 49° SE visible
6 Apr 8.6 03:02:47 10° NW 03:12:03 29° WSW 03:12:53 29° WSW visible
6 Apr 9.3 19:43:55 10° WNW 19:53:40 33° NNW 20:03:49 10° NE visible
6 Apr 9.1 21:59:58 10° NW 22:10:10 36° NNE 22:20:47 10° E visible
7 Apr 8.1 00:13:14 10° NW 00:24:48 75° NE 00:29:32 44° SE visible
7 Apr 8.4 02:26:15 10° NW 02:36:27 38° WSW 02:37:13 38° WSW visible
7 Apr 9.3 19:06:55 10° W 19:16:52 36° NNW 19:27:14 10° NE visible
7 Apr 9.2 21:23:27 10° NW 21:33:22 33° NNE 21:43:40 10° ENE visible
7 Apr 8.3 23:37:07 10° NW 23:48:32 64° NE 23:54:02 37° ESE visible
8 Apr 8.2 01:49:54 10° NW 02:00:45 48° WSW 02:01:43 48° SW visible
8 Apr 9.3 20:46:46 10° NW 20:56:29 32° N 21:06:34 10° ENE visible
8 Apr 8.5 23:00:57 10° NW 23:12:09 54° NE 23:18:39 29° ESE visible
9 Apr 8.0 01:13:39 10° NW 01:24:56 61° WSW 01:26:20 58° SW visible
9 Apr 9.3 03:29:33 10° WNW 03:34:02 14° W 03:34:02 14° W visible
9 Apr 9.3 20:09:58 10° WNW 20:19:34 31° N 20:29:33 10° ENE visible
9 Apr 8.7 22:24:44 10° NW 22:35:39 46° NNE 22:43:21 22° E visible
10 Apr 7.9 00:37:30 10° NW 00:49:01 75° WSW 00:51:04 64° S visible
10 Apr 9.1 02:51:50 10° WNW 02:58:46 20° W 02:58:46 20° W visible
10 Apr 9.4 19:33:03 10° WNW 19:42:40 32° N 19:52:40 10° NE visible
10 Apr 8.9 21:48:27 10° NW 21:59:02 41° NNE 22:08:08 16° E visible
11 Apr 7.9 00:01:22 10° NW 00:13:00 89° SW 00:15:51 61° SSE visible
11 Apr 8.8 02:14:54 10° NW 02:23:33 28° W 02:23:33 28° W visible
11 Apr 9.4 18:56:04 10° WNW 19:05:48 33° NNW 19:15:56 10° NE visible
11 Apr 9.0 21:12:03 10° NW 21:22:18 36° NNE 21:32:59 10° E visible
11 Apr 8.0 23:25:15 10° NW 23:36:52 77° NE 23:40:42 51° ESE visible
12 Apr 8.5 01:38:20 10° NW 01:48:25 37° WSW 01:48:25 37° WSW visible
12 Apr 9.2 20:35:32 10° NW 20:45:30 34° NNE 20:55:51 10° ENE visible
12 Apr 8.2 22:49:08 10° NW 23:00:36 65° NE 23:05:35 40° ESE visible
13 Apr 8.3 01:01:57 10° NW 01:12:44 47° WSW 01:13:19 47° WSW visible
13 Apr 9.3 19:58:53 10° NW 20:08:38 32° N 20:18:45 10° ENE visible
13 Apr 8.4 22:13:00 10° NW 22:24:14 55° NE 22:30:32 30° ESE visible
14 Apr 8.0 00:25:42 10° NW 00:36:57 59° WSW 00:38:15 57° SW visible
14 Apr 9.4 02:41:56 10° WNW 02:45:58 13° W 02:45:58 13° W visible
14 Apr 9.3 19:22:05 10° WNW 19:31:43 31° N 19:41:43 10° ENE visible
14 Apr 8.6 21:36:47 10° NW 21:47:45 47° NE 21:55:30 22° E visible
